User: anonymous   Login
Location: Unspecified
(0.0000°N, 0.0000°E)
Time: 22:59:30
(UTC+00:00)
Language:

NNS O-25 - Orbit

View from above orbital plane
View from above orbital plane
View from above satellite
View from above satellite

Ground track
Ground track

The orbit data is extracted from the following two-line orbital elements,

1 19419U 88074A   17267.46042562 +.00000050 +00000-0 +69477-4 0  9995
2 19419 089.9907 018.8115 0097279 164.1844 240.3043 13.42172717423778
Epoch (UTC): 24 September 2017 11:03:00
Eccentricity: 0.0097279
inclination: 89.9907°
perigee height: 1028 km
apogee height: 1174 km
right ascension of ascending node: 18.8115°
argument of perigee: 164.1844°
revolutions per day: 13.42172717
mean anomaly at epoch: 240.3043°
orbit number at epoch: 42377

The dashed part of the orbit path shows where the satellite is in the earth's shadow,  

DLR